Regional Weather Roundup
Issued by NWS Newport/Morehead, NC

Current Version | Previous Version | Graphics & Text | Print | Product List | Glossary On
Versions: 1 2 3 4 5 6 7 8 9 10 11 12 13 14 15 16 17 18 19 20 21 22 23 24 25 26 27 28 29 30 31 32 33 34 35 36 37 38 39 40 41 42 43 44 45 46 47 48 49 50
000 ASUS42 KMHX 281422 RWRMHX WEATHER ROUNDUP FOR EASTERN NORTH CAROLINA NATIONAL WEATHER SERVICE NEWPORT/MOREHEAD CITY NC 900 AM EST SUN DEC 28 2014 NOTE: "FAIR" INDICATES FEW OR NO CLOUDS BELOW 12,000 FEET WITH NO SIGNIFICANT WEATHER AND/OR OBSTRUCTIONS TO VISIBILITY NCZ015>017-031-032-045>047-102-103-281500- NORTH COAST CITY SKY/WX TMP DP RH WIND PRES REMARKS EDENTON CLOUDY 56 52 85 SW7 30.09R ELIZABETH CITY CLOUDY 59 51 75 S8 30.07F KITTY HAWK PTSUNNY 56 53 89 SW6 30.07F MANTEO CLOUDY 54 50 87 S7 30.09S $$ NCZ045>047-081-094-103-104-281500- CENTRAL COAST CITY SKY/WX TMP DP RH WIND PRES REMARKS FRISCO PTSUNNY 59 56 89 SW7 30.11S SWANQUARTER N/A 55 N/A N/A SW6 30.06S $$ NCZ095-097-098-100-101-281500- SOUTHERN COAST CITY SKY/WX TMP DP RH WIND PRES REMARKS BEAUFORT MOSUNNY 62 58 86 SW7 30.12S CEDAR ISLAND N/A 68 N/A N/A S7G13 30.15S JACKSONVILLE PTSUNNY 57 50 77 SW3 30.12F PINEY ISLAND MOSUNNY 60 53 77 S6 30.11S WILMINGTON PTSUNNY 57 49 74 S3 30.14S $$ NCZ011>013-027>030-043-044-078>080-089-090>093-098-281500- COASTAL PLAIN CITY SKY/WX TMP DP RH WIND PRES REMARKS AHOSKIE PTSUNNY 54 49 85 S7 30.06S CLINTON LGT RAIN 55 52 90 S5 30.11S ELIZABETHTOWN CLOUDY 55 49 81 S3 30.11F GOLDSBORO PTSUNNY 56 56 99 SW8 30.09R GREENVILLE PTSUNNY 59 52 77 SW7 30.11R HAVELOCK PTSUNNY 57 51 80 SW6 30.13S KENANSVILLE PTSUNNY 55 50 85 SW3 30.11S KINSTON LGT RAIN 57 52 82 SW8 30.11S NEW BERN MOSUNNY 59 52 77 SW8 30.12S RICHLANDS CLOUDY 54 48 82 S7 30.12F ROCKY MOUNT CLOUDY 56 50 80 SW9 30.08S WASHINGTON LGT RAIN 57 53 85 SW7 30.09S WHITEVILLE CLOUDY 58 52 79 S6 30.12S $$ AMZ130-135-150-152-154-156-158-170-250-252-270-ANZ085-086-088-633-658-670-281500- MARINE OBSERVATIONS STATION/POSITION TIME TEMP WIND PRES WAVE SWELL AIR SEA DIR/SP/G HT/PER HT/PER (UTC) (F) (DEG/KT/KT) (MB) (FT/S) (FT/S) CHESAPEAKE LIGHT 1400 53 220/ 17/ 17 1018.5 64 E VA BEACH 1400 55 53 220/ 12/ 14 1017.6 3/14 3/14 DUCK 1400 54 49 200/ 11/ 14 1017.4 2 E DUCK 1300 48 N/A 2/14 2/14 10 NE DUCK 1300 50 N/A 3/14 2/14 OREGON INLET 1400 53 53 190/ 8/ 8 1019.0 13E OREGON INLT 1400 53 N/A 2/14 2/14 HATTERAS CG 1400 59 55 220/ 6/ 9 1019.8 DIAMOND BUOY 1400 71 1019.5 4/13 17 S OCRACOKE NOT AVBL CAPE LOOKOUT 1400 65 210/ 8/ 13 1020.0 BEAUFORT LAB 1400 60 54 200/ 4/ 4 1019.0 30 SE NEW RIVER 1400 64 61 230/ 10/ 12 1020.9 3/15 2/15 5 SE WRIGHTSVLE NOT AVBL 225 S CAPE HAT 1300 73 74 200/ 17/ 19 1022.4 5/14 5/14 41 SE CHARLESTON 1400 73 74 220/ 10/ 12 1020.9 3/15 2/15 $$

USA.gov is the U.S. government's official web portal to all federal, state and local government web resources and services.